Regional Weather Roundup
Issued by NWS

Home | Current Version | Previous Version | Text Only | Print | Product List | Glossary Off
Versions: 1 2 3 4 5 6 7 8 9 10 11 12 13 14 15 16 17 18 19 20 21 22 23 24 25 26 27 28 29 30 31 32 33 34 35 36 37 38 39 40 41 42 43 44 45 46 47 48 49 50

000
ASUS43 KLMK 150610
RWRKY
KENTUCKY REGIONAL WEATHER ROUNDUP
NATIONAL WEATHER SERVICE LOUISVILLE KY
200 AM EDT TUE APR 15 2014

NOTE "FAIR" INDICATES FEW OR NO CLOUDS BELOW 12,000 FEET
WITH NO SIGNIFICANT WEATHER AND/OR OBSTRUCTIONS TO VISIBILITY.

KYZ001>023-026-027-061>063-070>075-150700-
WESTERN AND SOUTH CENTRAL KENTUCKY

CITY           SKY/WX    TMP DP  RH WIND       PRES   REMARKS
PADUCAH        LGT RAIN  39  33  79 NW10      30.03R WCI  32
HENDERSON      CLOUDY    37  30  75 N14G24    29.99S WCI  29
OWENSBORO      LGT RAIN  37  37 100 NW18      29.96S WCI  27
HOPKINSVILLE   DRIZZLE   39  39 100 N12       29.95R WCI  32
BOWLING GREEN  LGT RAIN  42  39  89 NW12G18   29.89F FOG
GLASGOW        RAIN      42  42 100 NW7       29.87R
$$

KYZ024-025-028>034-038-045-046-053-150700-
NORTH CENTRAL KENTUCKY

CITY           SKY/WX    TMP DP  RH WIND       PRES   REMARKS
LOUISVILLE/SDF LGT RAIN  38  35  89 NW17      29.91R FOG     WCI  28
LOUISVILLE/LOU RAIN      40  35  83 NW17      29.91R WCI  31
FORT KNOX      MIX PCPN  37  36  93 NW15G24   29.87F WCI  28
$$

KYZ035>037-039>044-047>052-055>060-089>105-150700-
NORTHEAST KENTUCKY

CITY           SKY/WX    TMP DP  RH WIND       PRES   REMARKS
LEXINGTON      LGT RAIN  42  39  89 NW20G31   29.81R
COVINGTON      LGT SNOW  36  36 100 NW18      29.83R FOG     WCI  26
FRANKFORT      LGT RAIN  39  38  96 NW12      29.83R FOG     WCI  32
$$

KYZ054-064>069-076>088-106>120-150700-
SOUTHEAST KENTUCKY

CITY           SKY/WX    TMP DP  RH WIND       PRES   REMARKS
JACKSON        LGT RAIN  60  55  83 SW5       29.68F
LONDON         LGT RAIN  53  49  86 NW18G26   29.72F
SOMERSET       RAIN      48  46  93 NW12      29.80R
MIDDLESBORO    CLOUDY    64  58  81 S9        29.71F
MONTICELLO     CLOUDY    46  46 100 NW13      29.81R FOG
$$




USA.gov is the U.S. government's official web portal to all federal, state and local government web resources and services.